weather.gov     
National Weather Service

Terminal Aerodrome Forecast
NWS Homepage
This page is being discontinued on March 12, 2014.
The same data is available at this site. Please update your bookmarks.
Thank you, and we apologize for the inconvenience.
Please send an email to SR-SRH.Webmaster@noaa.gov with any concerns.


Current Version
Previous Version:    01  02  03  04  05  06  07  08  09  10  11  12  13  14  15  16  17  18  19  20  21  22  23  24  25  26  27  28  29  30  
   31  32  33  34  35  36  37  38  39  40  
[Printable]
138
FTUS41 KLWX 231400 AAA
TAFIAD
TAF AMD
KIAD 231421Z 2314/2418 00000KT P6SM FEW080 SCT110 BKN250
     FM240000 14007KT P6SM OVC025
     FM240200 13008KT 3SM RA OVC008
     FM240500 15013KT 2SM RA OVC008
     FM240600 15014KT 1SM RA OVC008
     FM240900 18012KT 2SM -RA OVC008
     FM241200 18011KT P6SM OVC008=


U.S. Dept. of Commerce
NOAA National Weather Service
1325 East West Highway
Silver Spring, MD 20910
E-mail: w-nws.webmaster@noaa.gov
Page last modified: May 16, 2007
NATIONAL WEATHER SERVICE: for Safety, for Work, for Fun - FOR LIFE